SL-16 DEB, 22335

Orbit data source: Space-Track

SL-16 DEB, 22335 is space debris in LEO originally from a launch on Fri, 25 Dec 1992 UTC launched from the Tyuratam Missile And Space Complex (TTMTR). Debris objects in space refer to the collection of defunct objects orbiting the Earth. Examples of debris include non-operational satellites, rocket bodies, and fragments generated from explosions, collisions, or faulty payload assembly.

Loading next visibility...
Identifier
22335, 1992-093Y
Orbit
LEO
Country
Flag of CISCIS
Related business
Manufacturer
Unknown
Mission
Spacecraft
Bus & Motor
Unknown
Mass
Unknown
Launch date (UTC)
1992-12-25 (33 years ago)
Launch vehicle
Unknown
Launch site
Tyuratam Missile And Space Complex (TTMTR)
Object type
Payload
Rocket body
Debris
Shape & HBR
Unknown shape, 0.7 m
Radar Cross Section
Medium (>0.1 m² and <1 m²)

Expand to show TLE details & history
Last TLE update: 9 hours ago

TLE from 9 hours ago
0 SL-16 DEB
1 22335U 92093Y   25352.91513895  .00000615  00000-0  43623-3 0  9999
2 22335  71.1622 178.9584 0109688 153.6232 311.2019 13.98577181675265
Epoch: 2025-12-18T21:57Z
TLE epoch observation values (Epoch: 2025-12-18T21:57:48.005Z)
Latitude
66.8569°
Longitude
-110.81328°
Altitude
857.672 km
Speed
7.457 km/s
True Right ascension
20h 25m 36s
True Declination
66° 44' 03"
Sunlit
Object was in daylight at epoch
Visualization orbit readout
Latitude
Unknown
Longitude
Unknown
Altitude
Unknown
Speed
Unknown
Apparent Right ascension
Unknown
Apparent Declination
Unknown
Sunlit
N/A
Visualization observer readout
Local Sidereal Time
05:57:56
Azimuth
Unknown
Elevation
Unknown
Doppler factor
Unknown
Orbital elements
Apogee altitude
976.447 km
Perigee altitude
816.855 km
Semi-major axis
7,274.788 km
Eccentricity
0.01097
Inclination
71.1622°
RAAN
178.9584°
Arg. of periapsis
153.6232°
True anomaly
310.24762°
Mean anomaly
311.2019°
Eccentric anomaly
310.72562°
Mean motion
3.49794 °/min
Orbital period
102.92 mins
BSTAR
0.00043623
Loading maneuver chart data...
Computing Atmospheric mass density...

Documentation

Showing up to 5 results
|